W8MRL Weather Reports


time (UTC)temp
C
wind
direction
speed
KPH
gust
KPH
rain 1hr
cm
rain 24hr
cm
rain mn
cm
humidity
%
barometer
mb
20260505041548 19 194 1.6 12.9 0.00 0.03 0.00 67 1009.1
20260505040041 19 213 3.2 11.3 0.00 0.03 0.00 68 1009.4
20260505034540 19 193 3.2 8.0 0.00 0.03 0.03 68 1009.4
20260505033043 19 193 1.6 12.9 0.00 0.03 0.03 69 1009.4
20260505031553 18 199 1.6 8.0 0.00 0.03 0.03 70 1009.6
20260505030041 18 203 1.6 4.8 0.00 0.03 0.03 72 1009.4
20260505024547 17 193 0.0 3.2 0.00 0.03 0.03 75 1009.4
20260505023042 16 204 0.0 1.6 0.00 0.03 0.03 77 1009.2
20260505021537 16 202 0.0 0.0 0.00 0.03 0.03 79 1008.8
20260505020036 16 202 0.0 0.0 0.00 0.03 0.03 78 1008.6
20260505014558 17 202 0.0 0.0 0.00 0.03 0.03 73 1008.4
20260505013036 19 202 0.0 1.6 0.00 0.03 0.03 68 1008.3
20260505011545 20 205 1.6 4.8 0.00 0.03 0.03 64 1008.2
20260505010035 20 162 1.6 4.8 0.00 0.03 0.03 63 1008.1
20260505004534 21 193 1.6 8.0 0.00 0.03 0.03 61 1008.2
20260505003033 21 195 3.2 14.5 0.00 0.03 0.03 59 1008.2
20260505001532 22 221 3.2 14.5 0.00 0.03 0.03 57 1008.3
20260505000031 22 195 4.8 25.7 0.00 0.03 0.03 55 1008.4
20260504234528 23 170 4.8 24.1 0.00 0.03 0.03 54 1008.5
20260504233028 23 213 4.8 9.7 0.00 0.03 0.03 58 1008.7
20260504231527 23 205 9.7 20.9 0.00 0.03 0.03 55 1008.7
20260504230126 23 203 3.2 11.3 0.00 0.03 0.03 57 1008.8
20260504224530 23 205 1.6 8.0 0.00 0.03 0.03 56 1009.1
20260504223022 23 250 1.6 12.9 0.00 0.03 0.03 57 1009.3
20260504221523 23 175 3.2 17.7 0.00 0.03 0.03 55 1009.6
20260504220017 23 149 1.6 12.9 0.00 0.03 0.03 56 1009.3
20260504214515 23 221 4.8 9.7 0.00 0.03 0.03 57 1009.5
20260504213019 22 241 3.2 14.5 0.00 0.03 0.03 60 1010.1
20260504211516 22 225 4.8 20.9 0.00 0.03 0.03 59 1010.3
20260504210008 22 217 6.4 16.1 0.00 0.03 0.03 59 1010.6
20260504204513 22 223 8.0 19.3 0.00 0.03 0.03 61 1010.6
20260504203006 21 175 9.7 17.7 0.00 0.03 0.03 62 1010.9
20260504201504 21 198 3.2 11.3 0.00 0.03 0.03 68 1011.3
20260504200004 20 188 4.8 17.7 0.00 0.03 0.03 70 1011.3
20260504194503 19 240 4.8 12.9 0.03 0.03 0.03 73 1011.3
20260504193003 18 201 3.2 14.5 0.03 0.03 0.03 74 1011.6
20260504191502 18 255 3.2 14.5 0.03 0.03 0.03 73 1011.4
20260504184501 20 199 4.8 17.7 0.00 0.00 0.00 67 1012.3
20260504183104 20 192 9.7 22.5 0.00 0.00 0.00 65 1012.3
20260504181605 21 203 9.7 27.4 0.00 0.00 0.00 63 1012.0
20260504180116 22 193 9.7 19.3 0.00 0.00 0.00 62 1011.8
20260504174555 21 267 4.8 19.3 0.00 0.00 0.00 65 1011.5
20260504173106 21 155 4.8 14.5 0.00 0.00 0.00 64 1011.3
20260504171551 20 222 4.8 14.5 0.00 0.00 0.00 66 1011.7
20260504081544 8 170 0.0 1.6 0.00 0.00 0.00 82 1014.2
20260504050020 9 193 0.0 0.0 0.00 0.00 0.00 78 1016.0
20260504044520 10 193 0.0 0.0 0.00 0.00 0.00 76 1016.2
20260504043014 11 193 0.0 1.6 0.00 0.00 0.00 72 1016.2